Cosmos 1805 Rocket - Orbit

View from above orbital plane
View from above orbital plane
View from above satellite
View from above satellite

Ground track
Ground track

The orbit data is extracted from the following two-line orbital elements,

1 17192U 86097B   13139.21599546  .00000354  00000-0  40963-4 0  1291
2 17192 082.5081 214.1444 0016028 333.9864 081.7896 14.82609465427837
Epoch (UTC): 19 May 2013 05:11:02
Eccentricity: 0.0016028
inclination: 82.5081°
perigee height: 610 km
apogee height: 632 km
right ascension of ascending node: 214.1444°
argument of perigee: 333.9864°
revolutions per day: 14.82609465
mean anomaly at epoch: 81.7896°
orbit number at epoch: 42783

The dashed part of the orbit path shows where the satellite is in the earth's shadow,  

Developed and maintained by Chris Peat, Heavens-Above GmbH. Please read the updated FAQ before sending e-mail. Imprint. DLR